Location: *
(50.3194°N, 7.1067°E)
Time: 15:55:58
(UTC+00:00)

Cosmos 2333 Rocket - Pass Details

Date: 22 September 2019
Orbit: 840 x 862 km, 70.8° (Epoch: 22 October)

Event Time Altitude Azimuth Distance (km) Brightness Sun altitude
Rises 18:41:57 0° 323° (NW) 3,426 6.3 -12.1°
Reaches altitude 10° 18:44:42 10° 313° (NW) 2,489 5.7 -12.5°
Maximum altitude 18:49:29 28° 256° (WSW) 1,542 4.2 -13.2°
Drops below altitude 10° 18:54:16 10° 198° (SSW) 2,486 4.7 -14.0°
Sets 18:57:01 0° 188° (S) 3,421 5.3 -14.4°
